Starlink 1524

operational
NORAD ID: 46047 Int'l Des: 2020-055 Owner: SPXS Country: US Constellation: starlink
LEOCIRCULARSTARLINK_TYPE

关于 Starlink 1524

正在加载描述...

实时位置

正在加载3D地球...

即将过境

高度历史

Altitude vs Time

uPlot chart will show altitude changes over time

两行轨道根数

1 46047U 20055W 25350.67088027 .00002030 00000-0 15517-3 0 9993
2 46047 53.0541 129.3034 0001325 86.7407 273.3734 15.06397414296518
Epoch: Dec 16, 2025 • Age: 22 hours

当前状态

高度 566.1 km
速度 7.58 km/s
星下点 -51.76°S, 81.24°E
发射日期 Aug 7, 2020
运行时间 5.3 years
类型 internet

技术详情

分类 Payload
质量 260.00 kg
干质量 248.00 kg
总质量 260.00 kg
长度 0.20 m
直径 2.80 m
跨度 9.00 m
形状 Box + pan
制造商 SPXS
平台类型 Starlink
阶段状态 In Orbit
所有者/国家 SPXS/US

大型星座

Loading constellations...